Provo, UT

8:57 AM MST on November 12, 2019 (GMT -0700)
Provo Municipal

Weather History for KPVU - September, 2019

Change the Weather History Date:

Sunday, September 22, 2019

  Actual Average Record
Temperature  
Mean Temperature 56 °F -  
Max Temperature 73 °F 72 °F 85 °F (1982)
Min Temperature 39 °F 44 °F 32 °F (2004)
Degree Days  
Heating Degree Days 9    
Growing Degree Days 6 (Base 50)    
Moisture  
Dew Point 40 °F    
Average Humidity 62    
Maximum Humidity 89    
Minimum Humidity 21    
Precipitation  
Precipitation 0.00 in - - ()
Sea Level Pressure  
Sea Level Pressure 30.08 in    
Wind  
Wind Speed 3 mph (SSE)    
Max Wind Speed 7 mph    
Max Gust Speed -    
Visibility 10 miles    
Events      
Averages and records for this station are not official NWS values.
T = Trace of Precipitation, MM = Missing Value Source: NWS Daily Summary

Daily Weather History Graph

Daily Weather History Graph

Search for Another Location

Airport or City:

Astronomy

Sep. 22, 2019 Rise Set
Actual Time 7:14 AM MDT 7:24 PM MDT
Civil Twilight 6:47 AM MDT 7:51 PM MDT
Nautical Twilight 6:15 AM MDT 8:23 PM MDT
Astronomical Twilight 5:43 AM MDT 8:55 PM MDT
Moon 12:06 AM MDT (9/22) 3:23 PM MDT (9/22)
Length of Visible Light 13h 04m
Length of Day
12h 09m
Last Quarter, 43% of the Moon is Illuminated
Sep 22
Last Quarter
Sep 28
New
Oct 5
First Quarter
Oct 13
Full
Oct 21
Last Quarter

Hourly Weather History & Observations

Time (MDT) Temp. Windchill Dew Point Humidity Pressure Visibility Wind Dir Wind Speed Gust Speed Precip Events Conditions
12:56 AM 46.0 °F - 39.0 °F 76% 30.12 in 10.0 mi Calm Calm - N/A   Clear
1:56 AM 44.1 °F 40.1 °F 39.0 °F 82% 30.12 in 10.0 mi SE 6.9 mph - N/A   Clear
2:56 AM 43.0 °F - 37.9 °F 82% 30.13 in 10.0 mi Calm Calm - N/A   Clear
3:56 AM 43.0 °F 41.3 °F 37.9 °F 82% 30.13 in 10.0 mi South 3.5 mph - N/A   Clear
4:56 AM 42.1 °F 38.4 °F 37.9 °F 85% 30.14 in 10.0 mi SSE 5.8 mph - N/A   Clear
5:56 AM 41.0 °F - 36.0 °F 82% 30.15 in 10.0 mi Calm Calm - N/A   Clear
6:56 AM 39.9 °F - 37.0 °F 89% 30.17 in 10.0 mi Calm Calm - N/A   Clear
7:56 AM 39.9 °F - 37.0 °F 89% 30.17 in 10.0 mi Calm Calm - N/A   Clear
8:56 AM 48.0 °F - 39.0 °F 71% 30.17 in 10.0 mi Variable 3.5 mph - N/A   Clear
9:56 AM 53.1 °F - 37.9 °F 57% 30.17 in 10.0 mi ESE 3.5 mph - N/A   Clear
10:56 AM 55.9 °F - 36.0 °F 47% 30.18 in 10.0 mi ESE 4.6 mph - N/A   Clear
11:56 AM 61.0 °F - 39.9 °F 46% 30.15 in 10.0 mi Variable 3.5 mph - N/A   Clear
12:56 PM 62.1 °F - 42.1 °F 48% 30.13 in 10.0 mi Variable 4.6 mph - N/A   Clear
1:56 PM 66.0 °F - 39.9 °F 38% 30.09 in 10.0 mi WSW 3.5 mph - N/A   Clear
2:56 PM 70.0 °F - 34.0 °F 27% 30.05 in 10.0 mi NNE 5.8 mph - N/A   Clear
3:56 PM 71.1 °F - 30.9 °F 23% 30.02 in 10.0 mi Variable 5.8 mph - N/A   Clear
4:56 PM 73.0 °F - 30.9 °F 21% 29.98 in 10.0 mi Variable 5.8 mph - N/A   Clear
5:56 PM 72.0 °F - 39.0 °F 30% 29.98 in 10.0 mi Variable 5.8 mph - N/A   Clear
6:56 PM 64.9 °F - 54.0 °F 68% 29.99 in 10.0 mi Variable 4.6 mph - N/A   Scattered Clouds
7:56 PM 63.0 °F - 54.0 °F 72% 29.99 in 10.0 mi West 3.5 mph - N/A   Scattered Clouds
8:56 PM 57.0 °F - 48.0 °F 72% 30.00 in 10.0 mi Calm Calm - N/A   Scattered Clouds
9:56 PM 55.9 °F - 42.1 °F 60% 29.99 in 10.0 mi Calm Calm - N/A   Clear
10:56 PM 55.9 °F - 42.1 °F 60% 29.98 in 10.0 mi SE 3.5 mph - N/A   Clear
11:56 PM 53.1 °F - 45.0 °F 74% 29.97 in 10.0 mi WNW 3.5 mph - N/A   Clear